Location: Vancouver
(49.2500°N, 123.1330°W)
Time: 20:19:35
(UTC-07:00)

Tiros 2 - Visible Passes

Search period start: 23 April 2014 00:00
Search period end: 03 May 2014 00:00
Orbit: 282 x 288 km, 48.5° (Epoch: 23 April)

Date Brightness Start Highest point End Pass type
(mag) Time Alt. Az. Time Alt. Az. Time Alt. Az.
23 Apr 5.7 21:43:59 10° W 21:46:27 53° SSW 21:47:05 38° SE visible
24 Apr 6.2 21:46:48 10° W 21:49:09 38° SSW 21:49:39 33° SSE visible
25 Apr 6.8 21:49:02 10° W 21:51:10 25° SSW 21:51:36 24° S visible
26 Apr 7.5 21:50:47 10° WSW 21:52:29 17° SSW 21:52:55 16° SSW visible
27 Apr 8.1 21:52:29 10° SW 21:53:07 11° SW 21:53:39 10° SSW visible
